Probability
0 0 0 0 0 0 0 0 0 0 0 0 0 0 0 0 0 0 0 0 0 0 3 6 10 6 6 3 3 3 3 3 3 3 3 0 0 3 3 3 3 0 0 0
0 0 0 0 0 0 0 0 0 0 0 0 0 0 0 0 0 0 0 0 0 0 3 3 6 10 6 3 3 3 3 3 3 3 3 3 0 0 0 0 0 0 0 0
0 0 0 0 0 0 0 0 0 0 0 0 0 0 0 0 0 0 0 0 0 0 0 3 6 10 6 6 6 3 3 3 3 3 3 3 0 0 0 0 0 0 0 0
0 0 0 0 0 0 0 0 0 0 0 0 0 0 0 0 0 0 0 0 0 0 0 3 3 3 3 3 3 3 3 3 3 3 3 3 0 0 0 0 0 0 0 0
0 0 0 0 0 0 0 0 0 0 0 0 0 0 0 0 0 0 0 0 0 0 0 0 3 0 0 6 3 3 3 3 3 3 3 3 0 0 0 0 0 0 0 0
0 0 0 0 0 0 0 0 0 0 0 0 0 0 0 0 0 0 0 0 0 0 0 0 0 0 0 0 0 3 3 3 3 3 3 3 0 0 0 0 0 0 0 0
0 0 0 0 0 0 0 0 0 0 0 0 0 0 0 0 0 0 0 0 0 0 0 0 0 0 0 0 0 0 3 3 3 3 3 3 0 0 0 0 0 0 0 0
0 0 0 0 0 0 0 0 0 0 0 0 0 0 0 0 0 0 0 0 0 0 0 0 0 0 0 0 0 0 0 3 3 3 3 3 0 0 0 0 0 0 0 0
0 0 0 0 0 0 0 0 0 0 0 0 0 0 0 0 0 0 0 0 0 0 0 0 0 0 0 0 0 3 3 0 0 0 3 0 0 0 0 0 0 0 0 0
0 0 0 0 0 0 0 0 0 0 0 0 0 0 0 0 0 0 0 0 0 0 0 0 0 0 0 0 0 3 3 3 0 0 0 0 0 0 0 0 0 0 0 0
0 0 0 0 0 0 0 0 0 0 0 0 0 0 0 0 0 0 0 0 0 0 0 0 0 0 0 0 0 3 3 3 0 0 0 0 0 0 0 0 0 0 0 0
0 0 0 0 0 0 0 0 0 0 0 0 0 0 0 0 0 0 0 0 0 0 0 0 0 0 0 0 0 0 0 3 0 0 0 0 0 0 0 0 0 0 0 0
0 0 0 0 0 0 0 0 0 0 0 0 0 0 0 0 0 0 0 0 0 0 0 0 0 0 0 0 0 0 0 0 0 0 0 0 0 0 0 0 0 0 0 0
0 0 0 0 0 0 0 0 0 0 0 0 0 0 0 0 0 0 0 0 0 0 0 0 0 0 0 0 0 0 0 0 0 0 0 0 0 0 0 0 0 0 0 0
0 0 0 0 0 0 0 0 0 0 0 0 0 0 0 0 0 0 0 0 0 0 0 0 0 0 0 0 0 0 0 0 0 0 0 0 0 0 0 0 0 0 0 0
0 0 0 0 0 0 0 0 0 0 0 0 0 0 0 0 0 0 0 0 0 0 0 0 0 0 0 0 0 0 0 0 0 0 0 0 0 0 0 0 0 0 0 0
0 0 0 0 0 0 0 0 0 0 0 0 0 0 0 0 0 0 0 0 0 0 0 0 0 0 0 0 0 0 0 0 0 0 0 0 0 0 0 0 0 0 0 0
0 0 0 0 0 0 0 0 0 0 0 0 0 0 0 0 0 0 0 0 0 0 0 0 0 0 0 0 0 0 0 0 0 0 0 0 0 0 0 0 0 0 0 0
0 0 0 0 0 0 0 0 0 0 0 0 0 0 0 0 0 0 0 0 0 0 0 0 0 0 0 0 0 0 0 0 0 0 0 0 0 0 0 0 0 0 0 0
0 0 0 0 0 0 0 0 0 0 0 0 0 0 0 0 0 0 0 0 0 0 0 0 0 0 0 0 0 0 0 0 0 0 0 0 0 0 0 0 0 0 0 0
0 0 0 0 0 0 0 0 0 0 0 0 0 0 0 0 0 0 0 0 0 0 0 0 0 0 0 0 0 0 0 0 0 0 0 0 0 0 0 0 0 0 0 0
0 0 0 0 0 0 0 0 0 0 0 0 0 0 0 0 0 0 0 0 0 0 0 0 0 0 0 0 0 0 0 0 0 0 0 0 0 0 0 0 0 0 0 0
0 0 0 0 0 0 0 0 0 0 0 0 0 0 0 0 0 0 0 0 0 0 0 0 0 0 0 0 0 0 0 0 0 0 0 0 0 0 0 0 0 0 0 0
0 0 0 0 0 0 0 0 0 0 0 0 0 0 0 0 0 0 0 0 0 0 0 0 0 0 0 0 0 0 0 0 0 0 0 0 0 0 0 0 0 0 0 0
0 0 0 0 0 0 0 0 0 0 0 0 0 0 0 0 0 0 0 0 0 0 0 0 0 0 0 0 0 0 0 0 0 0 0 0 0 0 0 0 0 0 0 0
0 0 0 0 0 0 0 0 0 0 0 0 0 0 0 0 0 0 0 0 0 0 0 0 0 0 0 0 0 0 0 0 0 0 0 0 0 0 0 0 0 0 0 0
Height
5658 5656 5652 5651 5649 5648 5646 5646 5646 5646 5646 5646 5648 5651 5653 5653 5655 5656 5658 5660 5662 5664 5667 5669 5672 5676 5681 5686 5693 5699 5705 5711 5717 5722 5727 5732 5737 5742 5746 5751 5755 5759 5763 5767
5652 5649 5647 5644 5642 5640 5639 5638 5638 5639 5637 5637 5639 5641 5643 5643 5644 5646 5647 5649 5651 5652 5654 5656 5659 5663 5668 5674 5680 5687 5694 5700 5706 5712 5717 5722 5727 5732 5736 5741 5746 5750 5754 5758
5645 5644 5640 5638 5636 5634 5633 5631 5631 5631 5630 5630 5631 5632 5633 5634 5634 5635 5636 5637 5639 5640 5642 5644 5647 5651 5656 5662 5668 5675 5682 5689 5695 5701 5706 5712 5717 5721 5726 5731 5736 5740 5744 5749
5639 5637 5634 5632 5630 5628 5627 5626 5625 5623 5622 5622 5622 5621 5625 5625 5625 5625 5626 5627 5628 5629 5630 5633 5636 5640 5645 5651 5657 5664 5671 5678 5684 5690 5696 5701 5707 5712 5717 5722 5726 5731 5735 5739
5634 5631 5628 5626 5624 5622 5620 5619 5618 5617 5615 5614 5613 5613 5616 5616 5616 5616 5617 5617 5617 5618 5620 5622 5625 5629 5634 5640 5646 5653 5660 5667 5673 5679 5685 5691 5696 5702 5707 5712 5716 5721 5726 5730
5628 5625 5622 5620 5617 5615 5614 5613 5611 5609 5607 5606 5606 5605 5606 5606 5607 5607 5607 5607 5608 5608 5609 5611 5614 5617 5623 5629 5635 5642 5649 5656 5662 5668 5674 5680 5686 5691 5696 5701 5706 5711 5716 5721
5622 5619 5616 5614 5611 5609 5608 5607 5604 5601 5599 5599 5599 5597 5598 5598 5598 5598 5598 5598 5598 5599 5600 5601 5603 5608 5613 5619 5625 5631 5638 5645 5651 5657 5663 5669 5674 5680 5685 5691 5696 5701 5706 5711
5615 5613 5610 5607 5605 5603 5601 5600 5598 5595 5592 5593 5592 5590 5591 5591 5590 5590 5590 5590 5590 5591 5591 5593 5596 5599 5603 5609 5614 5620 5627 5633 5640 5646 5652 5658 5662 5668 5674 5680 5685 5690 5695 5700
5607 5606 5604 5601 5598 5596 5594 5592 5591 5588 5586 5585 5584 5584 5584 5583 5583 5582 5582 5582 5582 5583 5584 5586 5588 5592 5596 5600 5605 5611 5616 5622 5628 5635 5640 5646 5651 5656 5662 5668 5673 5679 5684 5689
5601 5599 5597 5594 5592 5589 5588 5586 5584 5581 5579 5577 5577 5577 5577 5576 5575 5575 5574 5574 5574 5575 5576 5578 5581 5584 5588 5592 5597 5601 5606 5612 5617 5623 5628 5634 5640 5645 5651 5656 5662 5667 5672 5677
5594 5592 5590 5587 5584 5582 5581 5580 5577 5575 5573 5571 5570 5573 5571 5569 5568 5567 5567 5566 5566 5567 5569 5571 5574 5576 5580 5584 5588 5592 5596 5601 5607 5612 5617 5622 5628 5634 5639 5645 5650 5656 5661 5666
5587 5584 5582 5580 5577 5575 5573 5572 5571 5570 5568 5565 5564 5568 5565 5563 5561 5560 5560 5559 5560 5560 5561 5563 5566 5568 5571 5575 5579 5583 5587 5591 5596 5602 5606 5612 5617 5622 5628 5634 5639 5644 5649 5655
5580 5577 5575 5573 5573 5570 5567 5565 5564 5562 5561 5559 5558 5563 5559 5557 5555 5555 5554 5553 5553 5553 5554 5555 5558 5560 5563 5566 5570 5574 5578 5582 5587 5591 5596 5601 5606 5611 5616 5622 5628 5633 5638 5643
5573 5570 5568 5567 5564 5562 5560 5559 5557 5556 5554 5553 5553 5554 5553 5550 5548 5548 5547 5546 5546 5546 5547 5548 5550 5552 5555 5558 5561 5565 5568 5572 5577 5582 5587 5591 5596 5601 5606 5611 5616 5621 5626 5631
5566 5563 5561 5558 5556 5555 5553 5552 5551 5549 5548 5547 5547 5546 5546 5543 5542 5541 5539 5539 5539 5539 5540 5541 5543 5545 5547 5550 5553 5556 5560 5564 5568 5573 5577 5581 5586 5590 5595 5599 5603 5609 5614 5619
5558 5556 5553 5552 5549 5548 5547 5546 5544 5542 5541 5540 5539 5540 5539 5537 5535 5533 5532 5531 5532 5532 5533 5534 5536 5538 5540 5542 5545 5548 5552 5556 5560 5564 5568 5571 5575 5580 5585 5588 5592 5597 5602 5607
5551 5548 5546 5544 5542 5540 5540 5540 5537 5536 5535 5533 5532 5533 5532 5530 5528 5527 5525 5525 5524 5525 5526 5527 5529 5530 5532 5534 5537 5540 5544 5548 5552 5555 5558 5562 5565 5570 5574 5578 5581 5586 5590 5595
5544 5541 5538 5536 5535 5533 5536 5532 5530 5529 5528 5527 5525 5525 5524 5523 5522 5521 5519 5518 5518 5518 5519 5520 5522 5523 5525 5527 5530 5533 5536 5540 5543 5546 5550 5553 5556 5560 5564 5567 5571 5574 5578 5583
5537 5534 5531 5529 5526 5526 5527 5525 5523 5522 5522 5520 5518 5517 5516 5515 5515 5515 5513 5512 5511 5512 5512 5513 5515 5516 5517 5519 5522 5525 5528 5531 5535 5538 5541 5544 5547 5550 5554 5557 5560 5564 5568 5572
5529 5527 5525 5522 5519 5518 5521 5518 5514 5514 5514 5513 5512 5510 5509 5508 5508 5509 5507 5506 5505 5505 5505 5506 5507 5509 5511 5513 5515 5517 5520 5523 5526 5529 5532 5534 5537 5540 5543 5547 5550 5553 5557 5561
5522 5519 5517 5515 5512 5511 5512 5509 5507 5508 5508 5506 5504 5503 5501 5501 5501 5501 5500 5499 5499 5499 5499 5500 5501 5502 5504 5506 5508 5509 5512 5515 5518 5520 5523 5525 5527 5530 5533 5537 5540 5544 5547 5551
5514 5512 5510 5508 5506 5507 5504 5502 5501 5499 5498 5497 5496 5495 5494 5493 5493 5493 5493 5492 5492 5492 5493 5493 5494 5495 5497 5498 5500 5502 5504 5507 5509 5511 5514 5516 5518 5521 5524 5527 5530 5534 5537 5540
5506 5505 5502 5501 5501 5498 5496 5494 5492 5491 5490 5489 5488 5487 5486 5486 5485 5485 5485 5485 5485 5486 5486 5486 5487 5489 5490 5491 5493 5495 5496 5498 5500 5503 5505 5507 5509 5512 5514 5518 5521 5524 5527 5530
5499 5497 5494 5493 5492 5490 5488 5486 5485 5483 5481 5481 5480 5480 5479 5478 5477 5477 5477 5478 5478 5478 5479 5480 5481 5482 5483 5484 5485 5487 5488 5490 5492 5494 5497 5499 5501 5503 5506 5509 5511 5514 5518 5520
5491 5488 5486 5485 5484 5482 5480 5478 5477 5475 5474 5473 5472 5471 5470 5470 5469 5469 5469 5469 5470 5470 5471 5472 5473 5474 5476 5477 5478 5479 5480 5482 5484 5486 5488 5490 5492 5495 5497 5500 5502 5505 5508 5510
5484 5481 5478 5477 5476 5473 5472 5471 5469 5468 5466 5465 5465 5464 5463 5462 5462 5461 5461 5461 5462 5462 5463 5464 5465 5466 5468 5469 5470 5471 5472 5474 5476 5478 5480 5481 5483 5486 5488 5491 5493 5495 5498 5500
Wind_Speed
28 28 28 27 27 29 29 30 30 31 31 33 33 33 33 35 37 37 38 39 39 40 42 43 45 47 49 51 52 51 50 50 48 47 47 46 45 44 43 41 40 39 38 38
28 28 27 26 27 29 29 29 29 30 31 31 31 32 32 34 36 37 37 38 40 41 43 44 45 47 49 51 53 52 51 50 49 48 47 46 46 46 44 43 42 41 39 39
28 27 26 26 27 28 28 28 28 28 29 29 30 31 31 33 35 36 37 38 40 41 42 43 44 46 48 51 51 52 51 50 50 49 48 47 46 46 46 45 44 42 41 40
27 26 26 26 27 28 28 28 28 28 27 27 28 31 30 31 34 35 36 37 38 40 42 43 44 46 48 50 51 51 51 50 50 50 49 47 46 46 46 46 45 43 42 40
26 26 26 26 26 28 27 26 27 27 28 28 28 30 29 30 32 34 36 36 36 38 40 42 44 45 47 49 50 51 51 51 50 50 49 48 47 46 47 47 47 45 44 42
27 27 27 27 27 27 27 27 27 27 29 29 28 29 29 29 30 31 32 34 35 36 37 40 42 43 46 48 50 51 51 51 51 50 50 49 47 47 48 47 47 47 46 44
28 27 27 27 27 27 27 27 27 28 28 29 28 28 28 29 29 29 30 32 33 34 35 36 38 40 44 46 49 52 53 52 51 51 51 50 49 48 48 48 47 47 47 47
28 27 27 27 27 27 27 27 28 29 29 29 27 27 27 28 28 29 29 30 31 32 34 34 36 39 40 42 46 50 52 52 52 52 52 51 50 50 49 49 49 48 48 47
29 29 28 27 28 28 28 28 28 29 29 28 27 27 27 28 29 29 30 30 31 32 32 34 36 37 39 40 43 46 49 50 51 52 53 53 51 50 50 51 50 49 49 48
30 30 30 30 29 29 28 28 26 26 27 28 28 27 27 27 29 29 30 30 30 32 33 33 35 36 38 40 41 43 46 49 50 51 52 53 52 51 51 52 52 51 50 50
31 31 30 30 29 28 27 27 27 26 27 28 29 27 27 27 27 28 28 29 28 29 31 32 34 35 37 38 40 42 44 46 48 49 50 51 52 52 52 52 52 52 52 52
31 31 30 29 28 28 27 26 26 26 26 28 29 28 27 27 26 26 27 28 28 28 30 31 32 34 35 37 39 41 42 44 46 47 49 50 51 52 52 52 52 52 53 53
31 31 30 28 27 27 27 27 27 27 27 28 28 27 27 28 28 28 27 28 28 29 30 31 32 34 35 37 38 39 40 42 44 45 46 47 49 51 52 52 53 53 53 52
31 31 30 29 28 27 27 27 28 28 28 29 28 26 26 28 28 28 28 28 29 29 30 31 32 33 34 36 38 38 38 40 42 43 45 45 46 48 51 52 53 53 53 53
32 31 30 29 29 29 28 27 28 29 29 30 28 26 25 27 28 28 28 29 29 30 31 31 32 33 34 35 38 39 39 40 41 42 45 46 45 45 47 50 51 53 55 55
31 31 30 29 30 30 29 28 27 28 29 29 29 27 25 26 27 27 28 28 28 29 30 31 32 33 34 36 38 38 39 40 41 41 42 44 46 46 46 46 48 51 53 54
31 30 30 29 30 31 30 28 28 27 27 28 29 27 26 25 26 26 26 27 27 28 29 29 31 32 34 36 37 38 38 39 40 40 41 42 45 46 46 45 47 49 51 52
31 30 30 29 29 30 29 29 29 28 27 27 28 28 27 26 26 26 25 26 27 28 28 29 29 31 33 35 36 37 38 38 39 40 40 41 43 44 44 45 45 46 48 50
31 30 30 29 29 29 29 29 29 29 28 27 27 28 27 27 26 25 25 24 26 27 29 29 29 30 32 34 36 36 37 39 39 39 39 40 42 42 42 42 43 45 46 48
30 30 30 30 30 29 29 29 29 30 29 28 27 27 27 27 27 26 25 25 25 26 26 27 28 29 30 32 34 36 37 37 38 38 37 38 40 42 41 41 42 43 44 46
30 30 30 30 30 29 29 28 29 29 29 29 27 27 27 27 27 27 26 26 25 25 25 25 26 27 28 30 32 34 34 35 36 36 37 38 39 40 41 41 41 42 42 44
30 30 30 30 29 29 28 28 28 28 29 29 29 28 27 27 27 27 27 26 26 25 25 26 26 26 26 28 30 31 33 33 35 36 36 37 38 39 41 40 40 40 41 42
29 29 29 29 28 29 28 28 28 28 29 29 29 29 28 27 27 28 28 28 27 27 26 26 26 27 27 29 30 31 31 32 34 35 35 36 37 38 39 40 40 40 40 41
29 30 30 29 28 29 28 28 27 27 28 28 29 29 29 28 27 28 29 29 28 28 27 27 27 27 27 28 29 30 31 32 32 33 34 35 36 36 37 38 38 39 40 40
30 30 30 29 29 29 29 29 28 27 27 28 28 29 28 28 28 28 28 28 28 28 28 28 28 28 28 28 28 29 30 31 31 32 33 34 35 35 36 37 38 38 38 38
29 30 30 29 28 29 28 28 28 27 27 27 28 28 28 28 27 27 27 27 27 27 27 27 27 28 27 27 28 28 30 30 31 32 33 34 35 36 36 36 36 36 37 37
Wind_Direction
299 295 290 285 284 282 280 276 274 271 267 264 260 259 257 255 256 256 254 253 252 251 248 247 244 241 237 235 234 233 234 234 235 235 235 234 234 235 235 235 235 237 237 236
298 294 290 287 286 285 282 278 275 273 270 266 261 259 257 256 256 257 257 256 255 253 249 248 245 242 237 234 232 231 232 234 235 234 235 235 235 234 234 235 235 236 237 237
296 295 290 288 286 285 284 281 277 276 273 271 267 261 258 257 256 257 258 257 256 254 250 247 244 242 237 233 231 230 230 232 233 234 234 235 235 235 234 234 235 236 236 236
296 294 290 289 286 287 286 283 280 279 276 273 271 267 260 259 258 258 259 258 257 255 252 247 244 241 237 233 231 230 229 230 232 234 235 235 235 235 235 234 235 236 237 236
298 294 291 289 288 288 287 284 284 282 280 277 274 271 266 265 263 261 260 259 259 256 252 249 245 241 237 233 231 230 230 231 231 232 234 235 235 235 235 234 235 235 237 236
299 295 290 289 289 287 286 284 284 283 283 279 277 274 271 268 268 265 262 259 258 257 254 249 246 241 237 234 232 231 230 231 232 232 233 234 235 235 235 235 235 235 237 236
300 296 292 289 288 285 284 285 287 286 285 282 280 276 272 271 270 268 265 262 258 255 253 248 244 239 235 234 233 232 232 231 231 231 232 234 235 235 235 235 235 236 236 237
299 297 295 290 287 286 284 286 288 290 286 284 281 277 275 272 270 268 266 263 258 256 253 248 244 239 237 235 234 233 233 232 232 232 233 234 235 235 235 235 236 236 235 236
299 296 293 290 287 286 284 284 288 290 289 286 284 281 278 274 270 268 267 264 259 255 252 247 244 241 238 236 236 235 235 233 232 233 233 233 235 235 234 235 235 235 235 235
297 297 294 291 288 285 283 283 286 288 289 288 285 282 280 277 273 269 267 265 261 256 251 245 242 243 240 239 238 236 236 235 233 233 234 234 235 235 236 235 235 236 236 237
296 296 294 291 288 286 283 279 280 284 285 287 286 284 283 281 278 273 269 266 263 257 251 247 245 244 243 240 238 238 238 236 234 235 235 235 235 235 236 235 236 236 236 237
297 296 294 291 288 284 281 280 279 282 284 284 284 284 282 280 278 276 272 267 262 259 253 249 246 244 242 240 238 239 239 237 235 236 236 236 236 236 236 236 237 237 237 237
297 296 294 290 287 284 280 279 279 278 280 283 283 283 282 279 277 275 273 270 264 260 256 250 247 245 244 241 240 238 238 237 236 236 237 236 236 236 236 237 238 238 238 237
296 294 293 290 287 285 283 279 277 278 279 282 285 284 280 279 278 275 272 269 266 260 256 251 248 245 244 242 240 237 237 237 237 238 238 238 238 237 237 238 239 239 238 238
295 292 290 288 284 282 282 281 278 276 278 280 283 285 281 279 277 276 273 269 266 262 258 254 250 249 247 244 240 239 238 237 237 237 238 239 239 238 239 240 240 239 239 238
297 293 289 286 283 281 279 280 279 278 276 277 280 282 282 281 278 275 271 267 265 260 257 255 253 251 249 246 244 240 239 238 238 239 239 238 238 237 239 240 240 240 238 238
297 294 291 287 283 281 279 280 280 281 279 277 278 280 280 278 278 276 270 266 263 261 258 256 254 252 249 248 245 242 240 240 240 240 240 239 238 238 239 241 241 240 239 239
296 294 291 288 285 282 281 279 279 280 281 279 279 278 277 278 278 277 274 268 263 262 258 256 255 253 250 249 246 243 242 241 241 241 241 241 241 240 241 241 241 240 239 239
293 292 291 290 288 285 282 281 280 278 279 280 280 279 277 276 276 277 275 272 268 265 262 259 257 255 251 249 247 245 246 244 244 244 243 242 241 241 241 241 242 242 243 242
290 289 289 290 290 290 287 283 281 278 277 278 280 279 277 275 274 274 273 272 270 269 266 261 259 255 252 250 248 248 247 246 246 244 244 244 242 242 241 241 242 243 244 243
288 286 287 287 288 288 289 287 283 281 280 279 280 280 278 276 273 272 271 270 269 269 266 261 256 252 252 252 251 248 246 245 246 245 245 246 245 243 242 242 243 244 245 246
290 287 286 286 286 288 289 288 285 282 280 279 279 279 278 275 272 269 269 267 267 266 265 260 255 253 253 253 252 249 247 246 246 246 246 247 247 246 243 242 244 245 246 247
289 289 287 285 285 285 286 287 286 284 281 279 279 279 278 275 271 268 267 266 265 264 263 259 256 254 255 254 252 251 250 249 248 248 247 247 247 246 245 243 244 245 246 248
288 289 287 286 284 283 282 283 284 283 281 278 277 278 277 275 273 270 268 266 263 262 261 260 258 257 256 255 255 254 252 251 250 250 249 248 247 246 245 244 244 245 246 248
290 289 287 285 284 282 281 282 282 282 281 279 276 277 277 275 273 272 271 267 262 259 259 259 257 256 256 256 256 254 253 252 251 250 249 249 248 247 246 247 246 247 247 249
290 289 288 287 286 285 284 283 282 282 281 279 277 277 277 277 276 274 271 268 264 260 258 257 257 256 256 256 255 254 253 252 251 250 250 250 249 247 248 248 248 248 249 250